Location: Northcutt
(34.7304°N, 84.4305°W)
Time: 10:23:19
(UTC+00:00)

A-11 Canister half - Pass Details

Date: 08 October 2022
Orbit: 1524 x 1685 km, 47.3° (Epoch: 30 November)

Event Time Altitude Azimuth Distance (km) Brightness Sun altitude
Rises 01:59:21 0° 304° (NW) 4,709 12.5 -34.5°
Reaches altitude 10° 02:02:23 10° 304° (NW) 3,739 11.8 -35.1°
Maximum altitude 02:11:52 79° 219° (SW) 1,614 8.9 -36.9°
Enters shadow 02:12:02 79° 207° (SSW) 1,615 8.9 -37.0°
Drops below altitude 10° 02:21:40 10° 135° (SE) 3,854 - -38.8°
Sets 02:24:49 0° 134° (SE) 4,859 - -39.4°
